Satellite-Ground Cal/Val Site Overpasses Predictions

Prediction of Satellite NPP Overpassing Cal/Val Site: Antarctic Dome C

Ground Cal/Val Site Location: Latitude: -75.10, Longitude: 123.35; Satellite-Ground Site NADIR distance within 100 km.

Table of predicted overpasses for the next 14.0 days since TLE Epoch: 1/19/2018
Interval Starting Time Ending Time Minimum Distance Time Minimum Distance (km)
1 01/21/2018 15:01:14 01/21/2018 15:01:38 01/21/2018 15:01:26 58.49
2 01/22/2018 14:42:24 01/22/2018 14:42:49 01/22/2018 14:42:36 50.72
3 01/23/2018 07:44:05 01/23/2018 07:44:25 01/23/2018 07:44:15 72.01
4 01/24/2018 07:25:11 01/24/2018 07:25:38 01/24/2018 07:25:24 35.94
5 01/26/2018 15:07:36 01/26/2018 15:07:43 01/26/2018 15:07:40 96.00
6 01/27/2018 14:48:35 01/27/2018 14:49:04 01/27/2018 14:48:49 15.58
7 01/29/2018 07:31:23 01/29/2018 07:31:52 01/29/2018 07:31:38 2.07
8 02/01/2018 14:54:47 02/01/2018 14:55:16 02/01/2018 14:55:02 20.86


NCC Satellite Cal/Val Overpasses Prediction Service
